QPF
0.00 0.01 0.01 0.01 0.02 0.03 0.02 0.01 0.01 0.01 0.01 0.01 0.01 0.01 0.01 0.02 0.03 0.06 0.08 0.07 0.07 0.09 0.10 0.11 0.08 0.06 0.10 0.20 0.21 0.13 0.13 0.22 0.39 0.26 0.12 0.10 0.11 0.11 0.12 0.17 0.16 0.15 0.14 0.13 0.10 0.10 0.13 0.20 0.19
0.01 0.01 0.00 0.01 0.03 0.03 0.02 0.01 0.01 0.02 0.02 0.01 0.00 0.00 0.01 0.01 0.02 0.03 0.04 0.04 0.05 0.07 0.09 0.10 0.08 0.05 0.07 0.15 0.23 0.21 0.21 0.28 0.27 0.14 0.07 0.07 0.08 0.09 0.12 0.13 0.12 0.14 0.12 0.10 0.11 0.12 0.15 0.23 0.18
0.02 0.01 0.01 0.03 0.04 0.03 0.02 0.01 0.01 0.00 0.00 0.00 0.00 0.00 0.01 0.02 0.02 0.03 0.04 0.03 0.04 0.05 0.07 0.09 0.09 0.07 0.06 0.08 0.13 0.20 0.23 0.22 0.14 0.08 0.07 0.09 0.11 0.14 0.14 0.10 0.11 0.11 0.08 0.09 0.12 0.16 0.18 0.26 0.20
0.01 0.01 0.01 0.03 0.04 0.02 0.02 0.02 0.01 0.00 0.00 0.00 0.00 0.00 0.02 0.03 0.03 0.03 0.02 0.02 0.05 0.06 0.06 0.09 0.08 0.08 0.08 0.07 0.06 0.08 0.13 0.11 0.09 0.08 0.09 0.11 0.11 0.12 0.11 0.09 0.08 0.06 0.07 0.10 0.12 0.16 0.19 0.31 0.31
0.01 0.01 0.01 0.03 0.02 0.02 0.02 0.03 0.02 0.00 0.00 0.00 0.00 0.01 0.03 0.04 0.03 0.02 0.02 0.02 0.04 0.06 0.07 0.09 0.10 0.08 0.09 0.06 0.05 0.05 0.08 0.09 0.08 0.09 0.10 0.11 0.11 0.09 0.09 0.07 0.05 0.05 0.06 0.09 0.13 0.18 0.23 0.36 0.45
0.01 0.01 0.02 0.02 0.01 0.02 0.02 0.02 0.01 0.00 0.00 0.00 0.00 0.00 0.03 0.04 0.04 0.03 0.02 0.01 0.04 0.06 0.07 0.06 0.10 0.09 0.09 0.07 0.06 0.07 0.07 0.09 0.09 0.09 0.10 0.11 0.14 0.11 0.10 0.07 0.07 0.07 0.07 0.10 0.15 0.24 0.27 0.60 0.63
0.01 0.01 0.02 0.01 0.01 0.02 0.02 0.01 0.01 0.01 0.00 0.00 0.00 0.00 0.02 0.03 0.03 0.03 0.02 0.02 0.03 0.03 0.03 0.04 0.07 0.11 0.12 0.10 0.10 0.10 0.09 0.08 0.07 0.09 0.11 0.13 0.11 0.09 0.09 0.07 0.09 0.09 0.10 0.12 0.16 0.24 0.43 0.67 0.43
0.01 0.01 0.01 0.01 0.01 0.01 0.01 0.01 0.00 0.01 0.00 0.00 0.00 0.01 0.03 0.03 0.05 0.05 0.04 0.03 0.03 0.02 0.02 0.02 0.07 0.17 0.13 0.11 0.09 0.10 0.11 0.10 0.09 0.10 0.11 0.13 0.14 0.11 0.09 0.08 0.11 0.10 0.09 0.11 0.16 0.32 0.45 0.34 0.19
0.01 0.01 0.01 0.02 0.02 0.01 0.01 0.01 0.00 0.00 0.01 0.01 0.01 0.02 0.03 0.03 0.03 0.03 0.04 0.03 0.04 0.04 0.05 0.02 0.07 0.15 0.09 0.08 0.08 0.11 0.13 0.11 0.10 0.11 0.11 0.13 0.18 0.17 0.15 0.13 0.12 0.12 0.10 0.11 0.17 0.25 0.29 0.19 0.11
0.01 0.02 0.01 0.01 0.01 0.01 0.01 0.00 0.00 0.01 0.01 0.01 0.01 0.02 0.02 0.01 0.01 0.02 0.02 0.02 0.02 0.02 0.02 0.02 0.04 0.05 0.04 0.06 0.07 0.10 0.11 0.11 0.11 0.13 0.12 0.10 0.13 0.15 0.12 0.10 0.10 0.12 0.12 0.13 0.14 0.16 0.16 0.13 0.12
0.00 0.01 0.01 0.01 0.02 0.01 0.00 0.00 0.00 0.00 0.00 0.01 0.01 0.02 0.02 0.01 0.01 0.01 0.02 0.02 0.02 0.02 0.02 0.01 0.02 0.03 0.04 0.05 0.06 0.08 0.10 0.11 0.10 0.09 0.09 0.08 0.08 0.08 0.08 0.10 0.11 0.11 0.10 0.10 0.11 0.10 0.09 0.08 0.12
0.00 0.00 0.00 0.00 0.02 0.01 0.00 0.00 0.00 0.00 0.01 0.02 0.03 0.04 0.02 0.01 0.01 0.02 0.02 0.01 0.02 0.03 0.02 0.02 0.02 0.02 0.03 0.04 0.04 0.08 0.09 0.09 0.08 0.08 0.06 0.04 0.05 0.05 0.05 0.07 0.08 0.08 0.07 0.07 0.09 0.09 0.08 0.08 0.08
0.01 0.00 0.00 0.00 0.01 0.00 0.00 0.00 0.00 0.00 0.01 0.02 0.02 0.03 0.02 0.01 0.01 0.02 0.01 0.01 0.02 0.03 0.02 0.02 0.02 0.03 0.05 0.04 0.04 0.05 0.06 0.07 0.06 0.05 0.04 0.03 0.03 0.03 0.04 0.05 0.07 0.06 0.06 0.08 0.10 0.12 0.10 0.07 0.05
0.01 0.00 0.00 0.00 0.00 0.00 0.00 0.00 0.00 0.00 0.01 0.01 0.02 0.02 0.02 0.01 0.01 0.02 0.02 0.02 0.02 0.02 0.01 0.01 0.02 0.03 0.04 0.04 0.05 0.05 0.05 0.06 0.05 0.04 0.03 0.03 0.04 0.04 0.06 0.07 0.07 0.06 0.06 0.07 0.07 0.08 0.07 0.06 0.05
0.00 0.00 0.00 0.00 0.00 0.00 0.00 0.00 0.00 0.00 0.00 0.00 0.01 0.01 0.01 0.01 0.01 0.02 0.03 0.03 0.02 0.02 0.02 0.02 0.02 0.03 0.04 0.03 0.05 0.03 0.03 0.04 0.04 0.03 0.03 0.03 0.03 0.04 0.05 0.08 0.06 0.06 0.06 0.06 0.07 0.07 0.07 0.05 0.05
0.00 0.00 0.00 0.00 0.00 0.00 0.00 0.00 0.00 0.00 0.00 0.00 0.00 0.01 0.01 0.01 0.01 0.02 0.02 0.02 0.01 0.01 0.02 0.02 0.01 0.02 0.03 0.04 0.05 0.02 0.02 0.03 0.03 0.04 0.03 0.03 0.04 0.05 0.07 0.06 0.05 0.05 0.05 0.06 0.08 0.08 0.06 0.05 0.04
0.00 0.00 0.00 0.00 0.00 0.00 0.00 0.00 0.00 0.00 0.00 0.00 0.00 0.01 0.01 0.02 0.02 0.02 0.01 0.01 0.01 0.01 0.01 0.02 0.01 0.03 0.04 0.04 0.04 0.03 0.03 0.03 0.04 0.04 0.04 0.03 0.04 0.05 0.05 0.05 0.05 0.05 0.05 0.05 0.04 0.04 0.04 0.04 0.04
0.00 0.00 0.00 0.00 0.00 0.00 0.00 0.00 0.00 0.00 0.00 0.00 0.00 0.01 0.01 0.02 0.03 0.02 0.01 0.01 0.01 0.01 0.01 0.02 0.03 0.05 0.05 0.04 0.04 0.04 0.04 0.04 0.04 0.04 0.03 0.02 0.03 0.04 0.06 0.05 0.04 0.04 0.05 0.05 0.05 0.04 0.04 0.04 0.04
0.00 0.00 0.00 0.00 0.00 0.00 0.00 0.00 0.00 0.00 0.00 0.00 0.00 0.01 0.01 0.02 0.02 0.02 0.01 0.01 0.01 0.01 0.01 0.02 0.06 0.06 0.05 0.04 0.04 0.04 0.05 0.04 0.03 0.03 0.02 0.02 0.02 0.05 0.06 0.04 0.04 0.04 0.04 0.04 0.04 0.03 0.04 0.04 0.04
0.00 0.00 0.00 0.00 0.00 0.00 0.00 0.00 0.01 0.00 0.01 0.00 0.00 0.00 0.00 0.01 0.01 0.02 0.02 0.01 0.01 0.01 0.02 0.04 0.07 0.07 0.05 0.04 0.03 0.03 0.04 0.03 0.02 0.02 0.03 0.02 0.03 0.04 0.04 0.04 0.06 0.05 0.05 0.05 0.05 0.05 0.05 0.04 0.03
0.00 0.00 0.00 0.00 0.00 0.00 0.00 0.01 0.01 0.00 0.00 0.00 0.00 0.00 0.00 0.00 0.01 0.01 0.02 0.02 0.01 0.02 0.03 0.04 0.04 0.07 0.07 0.05 0.03 0.03 0.04 0.05 0.04 0.04 0.05 0.03 0.03 0.04 0.03 0.03 0.04 0.06 0.07 0.07 0.07 0.07 0.05 0.05 0.04
0.00 0.00 0.00 0.01 0.01 0.01 0.01 0.01 0.01 0.00 0.00 0.00 0.00 0.00 0.01 0.01 0.01 0.01 0.01 0.01 0.02 0.02 0.03 0.03 0.04 0.06 0.07 0.06 0.05 0.05 0.05 0.06 0.06 0.05 0.05 0.05 0.03 0.03 0.03 0.03 0.04 0.07 0.06 0.06 0.06 0.05 0.06 0.06 0.05
0.00 0.00 0.00 0.01 0.01 0.01 0.01 0.01 0.01 0.00 0.00 0.00 0.01 0.00 0.00 0.00 0.01 0.01 0.01 0.01 0.01 0.01 0.01 0.01 0.03 0.04 0.05 0.05 0.06 0.06 0.06 0.06 0.05 0.04 0.04 0.04 0.04 0.03 0.03 0.05 0.06 0.05 0.04 0.04 0.05 0.06 0.06 0.08 0.09
0.00 0.00 0.01 0.01 0.01 0.01 0.01 0.00 0.01 0.01 0.01 0.01 0.00 0.00 0.00 0.00 0.01 0.00 0.01 0.01 0.02 0.02 0.01 0.01 0.02 0.03 0.04 0.05 0.05 0.06 0.06 0.06 0.05 0.04 0.04 0.04 0.04 0.04 0.03 0.04 0.04 0.04 0.04 0.04 0.05 0.05 0.05 0.06 0.08
0.00 0.01 0.01 0.01 0.01 0.01 0.00 0.00 0.01 0.01 0.00 0.00 0.00 0.00 0.00 0.00 0.00 0.00 0.00 0.01 0.01 0.01 0.01 0.02 0.03 0.04 0.04 0.04 0.04 0.05 0.05 0.05 0.04 0.03 0.04 0.04 0.04 0.04 0.03 0.03 0.04 0.04 0.04 0.04 0.04 0.04 0.03 0.03 0.04
0.00 0.00 0.01 0.01 0.01 0.01 0.00 0.01 0.01 0.00 0.00 0.00 0.00 0.00 0.00 0.00 0.00 0.01 0.00 0.00 0.00 0.00 0.00 0.01 0.02 0.03 0.02 0.02 0.02 0.04 0.04 0.04 0.03 0.03 0.03 0.03 0.03 0.04 0.04 0.03 0.04 0.04 0.03 0.03 0.05 0.04 0.04 0.04 0.04
0.01 0.00 0.00 0.00 0.00 0.00 0.01 0.00 0.01 0.01 0.00 0.00 0.00 0.00 0.00 0.00 0.01 0.01 0.00 0.00 0.00 0.00 0.00 0.01 0.01 0.02 0.02 0.02 0.03 0.03 0.03 0.03 0.03 0.03 0.03 0.03 0.03 0.04 0.05 0.03 0.03 0.03 0.03 0.03 0.04 0.04 0.03 0.04 0.04
0.00 0.00 0.00 0.00 0.01 0.01 0.01 0.01 0.01 0.02 0.01 0.01 0.01 0.00 0.00 0.00 0.01 0.01 0.00 0.00 0.00 0.00 0.01 0.01 0.01 0.02 0.03 0.04 0.03 0.03 0.03 0.02 0.02 0.02 0.02 0.03 0.04 0.05 0.04 0.03 0.02 0.02 0.03 0.02 0.03 0.03 0.02 0.03 0.03
0.01 0.00 0.00 0.00 0.00 0.00 0.01 0.01 0.01 0.01 0.01 0.01 0.01 0.01 0.00 0.00 0.00 0.01 0.00 0.00 0.00 0.00 0.00 0.00 0.01 0.01 0.02 0.03 0.04 0.03 0.03 0.02 0.02 0.01 0.01 0.02 0.03 0.03 0.03 0.02 0.02 0.02 0.03 0.02 0.03 0.02 0.02 0.02 0.03
0.00 0.00 0.00 0.00 0.00 0.00 0.00 0.01 0.00 0.00 0.00 0.00 0.01 0.01 0.00 0.00 0.00 0.00 0.00 0.00 0.00 0.00 0.00 0.00 0.00 0.01 0.04 0.07 0.06 0.04 0.03 0.02 0.01 0.01 0.01 0.01 0.01 0.01 0.01 0.02 0.01 0.01 0.01 0.02 0.02 0.02 0.03 0.03 0.02
MSLP
1010.30 1010.83 1011.32 1011.66 1011.78 1011.63 1011.23 1010.65 1009.99 1009.39 1008.94 1008.71 1008.70 1008.87 1009.15 1009.43 1009.65 1009.74 1009.70 1009.57 1009.42 1009.31 1009.30 1009.42 1009.66 1009.99 1010.34 1010.68 1010.96 1011.19 1011.40 1011.62 1011.89 1012.26 1012.70 1013.21 1013.73 1014.22 1014.62 1014.92 1015.12 1015.26 1015.37 1015.49 1015.66 1015.86 1016.07 1016.25 1016.36
1010.44 1011.00 1011.47 1011.75 1011.77 1011.52 1011.03 1010.39 1009.71 1009.13 1008.73 1008.56 1008.61 1008.83 1009.13 1009.41 1009.60 1009.65 1009.59 1009.45 1009.30 1009.23 1009.27 1009.46 1009.77 1010.15 1010.55 1010.92 1011.23 1011.48 1011.71 1011.96 1012.26 1012.65 1013.11 1013.61 1014.11 1014.56 1014.91 1015.15 1015.30 1015.39 1015.48 1015.60 1015.77 1015.98 1016.19 1016.36 1016.44
1010.68 1011.26 1011.70 1011.91 1011.83 1011.49 1010.93 1010.25 1009.58 1009.03 1008.69 1008.57 1008.67 1008.90 1009.18 1009.42 1009.55 1009.55 1009.44 1009.28 1009.15 1009.11 1009.22 1009.48 1009.86 1010.31 1010.76 1011.17 1011.52 1011.80 1012.06 1012.34 1012.67 1013.08 1013.54 1014.04 1014.50 1014.90 1015.19 1015.37 1015.47 1015.52 1015.59 1015.71 1015.88 1016.10 1016.31 1016.47 1016.51
1010.97 1011.54 1011.92 1012.05 1011.90 1011.49 1010.89 1010.21 1009.57 1009.07 1008.79 1008.73 1008.85 1009.07 1009.32 1009.50 1009.56 1009.49 1009.33 1009.16 1009.04 1009.05 1009.22 1009.54 1009.99 1010.50 1011.00 1011.44 1011.82 1012.13 1012.41 1012.72 1013.08 1013.50 1013.98 1014.46 1014.89 1015.24 1015.48 1015.61 1015.66 1015.68 1015.73 1015.84 1016.01 1016.23 1016.44 1016.57 1016.59
1011.19 1011.71 1012.03 1012.09 1011.88 1011.43 1010.84 1010.20 1009.62 1009.21 1008.99 1008.98 1009.12 1009.33 1009.53 1009.65 1009.64 1009.52 1009.34 1009.16 1009.07 1009.11 1009.34 1009.71 1010.20 1010.74 1011.25 1011.71 1012.09 1012.41 1012.72 1013.05 1013.43 1013.88 1014.36 1014.84 1015.26 1015.58 1015.77 1015.86 1015.87 1015.86 1015.89 1015.99 1016.16 1016.37 1016.56 1016.68 1016.67
1011.25 1011.70 1011.94 1011.93 1011.69 1011.26 1010.71 1010.15 1009.67 1009.35 1009.22 1009.27 1009.43 1009.63 1009.80 1009.87 1009.83 1009.68 1009.49 1009.32 1009.26 1009.35 1009.61 1010.01 1010.51 1011.03 1011.53 1011.96 1012.32 1012.63 1012.94 1013.28 1013.69 1014.16 1014.66 1015.15 1015.56 1015.87 1016.04 1016.10 1016.08 1016.05 1016.06 1016.14 1016.29 1016.48 1016.65 1016.74 1016.70
1011.07 1011.42 1011.58 1011.54 1011.29 1010.90 1010.44 1009.99 1009.65 1009.45 1009.42 1009.53 1009.73 1009.94 1010.09 1010.15 1010.09 1009.95 1009.78 1009.66 1009.64 1009.76 1010.03 1010.43 1010.89 1011.37 1011.80 1012.17 1012.48 1012.76 1013.06 1013.41 1013.83 1014.33 1014.85 1015.35 1015.78 1016.08 1016.24 1016.29 1016.25 1016.20 1016.19 1016.24 1016.36 1016.52 1016.66 1016.72 1016.65
1010.66 1010.91 1011.00 1010.92 1010.70 1010.39 1010.05 1009.75 1009.55 1009.48 1009.56 1009.74 1009.98 1010.21 1010.37 1010.43 1010.40 1010.30 1010.18 1010.11 1010.13 1010.29 1010.56 1010.92 1011.33 1011.72 1012.07 1012.36 1012.60 1012.83 1013.10 1013.44 1013.87 1014.39 1014.93 1015.45 1015.89 1016.19 1016.36 1016.39 1016.35 1016.28 1016.25 1016.27 1016.35 1016.46 1016.56 1016.58 1016.49
1010.10 1010.24 1010.26 1010.18 1010.01 1009.80 1009.59 1009.44 1009.39 1009.46 1009.64 1009.89 1010.16 1010.42 1010.60 1010.70 1010.71 1010.66 1010.62 1010.61 1010.69 1010.86 1011.12 1011.44 1011.77 1012.07 1012.32 1012.51 1012.67 1012.85 1013.08 1013.41 1013.84 1014.36 1014.91 1015.45 1015.89 1016.20 1016.37 1016.41 1016.35 1016.27 1016.20 1016.19 1016.23 1016.29 1016.34 1016.32 1016.20
1009.48 1009.53 1009.51 1009.44 1009.33 1009.23 1009.16 1009.16 1009.25 1009.43 1009.69 1009.99 1010.29 1010.57 1010.78 1010.91 1010.98 1011.01 1011.03 1011.10 1011.22 1011.42 1011.66 1011.93 1012.19 1012.40 1012.55 1012.66 1012.75 1012.87 1013.07 1013.37 1013.79 1014.30 1014.85 1015.37 1015.81 1016.12 1016.29 1016.32 1016.27 1016.17 1016.08 1016.03 1016.02 1016.03 1016.03 1015.98 1015.83
1008.95 1008.93 1008.88 1008.83 1008.79 1008.79 1008.85 1008.98 1009.18 1009.44 1009.75 1010.08 1010.39 1010.68 1010.90 1011.07 1011.19 1011.29 1011.38 1011.51 1011.67 1011.88 1012.11 1012.34 1012.54 1012.68 1012.76 1012.81 1012.85 1012.93 1013.10 1013.37 1013.76 1014.24 1014.76 1015.26 1015.68 1015.98 1016.14 1016.17 1016.11 1016.00 1015.89 1015.81 1015.76 1015.73 1015.69 1015.60 1015.44
1008.59 1008.52 1008.46 1008.44 1008.48 1008.57 1008.73 1008.95 1009.22 1009.53 1009.86 1010.18 1010.49 1010.76 1010.99 1011.18 1011.34 1011.48 1011.63 1011.80 1012.00 1012.21 1012.43 1012.64 1012.80 1012.91 1012.96 1012.98 1013.00 1013.06 1013.20 1013.44 1013.79 1014.23 1014.69 1015.15 1015.53 1015.80 1015.95 1015.98 1015.92 1015.81 1015.69 1015.59 1015.51 1015.45 1015.38 1015.26 1015.09
1008.45 1008.36 1008.31 1008.33 1008.42 1008.59 1008.82 1009.10 1009.40 1009.72 1010.03 1010.32 1010.59 1010.84 1011.05 1011.24 1011.42 1011.59 1011.77 1011.97 1012.18 1012.40 1012.62 1012.82 1012.97 1013.07 1013.13 1013.16 1013.19 1013.25 1013.38 1013.59 1013.89 1014.26 1014.66 1015.05 1015.38 1015.62 1015.75 1015.78 1015.73 1015.63 1015.51 1015.40 1015.30 1015.22 1015.12 1015.00 1014.83
1008.51 1008.42 1008.40 1008.46 1008.60 1008.82 1009.09 1009.39 1009.69 1009.97 1010.24 1010.48 1010.70 1010.90 1011.08 1011.26 1011.44 1011.62 1011.81 1012.02 1012.24 1012.46 1012.68 1012.88 1013.05 1013.19 1013.28 1013.35 1013.41 1013.49 1013.61 1013.79 1014.04 1014.33 1014.65 1014.97 1015.24 1015.44 1015.56 1015.59 1015.56 1015.47 1015.37 1015.26 1015.15 1015.06 1014.95 1014.83 1014.69
1008.69 1008.63 1008.64 1008.74 1008.93 1009.17 1009.45 1009.74 1010.00 1010.23 1010.43 1010.61 1010.77 1010.92 1011.07 1011.24 1011.41 1011.59 1011.78 1011.98 1012.19 1012.41 1012.63 1012.85 1013.06 1013.24 1013.40 1013.53 1013.64 1013.75 1013.87 1014.02 1014.20 1014.41 1014.65 1014.88 1015.10 1015.27 1015.37 1015.41 1015.40 1015.34 1015.25 1015.15 1015.05 1014.95 1014.85 1014.75 1014.63
1008.91 1008.88 1008.94 1009.08 1009.29 1009.55 1009.82 1010.07 1010.27 1010.43 1010.56 1010.66 1010.76 1010.87 1011.00 1011.15 1011.32 1011.50 1011.69 1011.88 1012.08 1012.30 1012.53 1012.77 1013.02 1013.26 1013.48 1013.68 1013.84 1013.98 1014.10 1014.21 1014.34 1014.47 1014.62 1014.78 1014.94 1015.07 1015.18 1015.23 1015.24 1015.20 1015.13 1015.04 1014.95 1014.85 1014.76 1014.68 1014.61
1009.09 1009.10 1009.20 1009.39 1009.63 1009.88 1010.12 1010.31 1010.44 1010.51 1010.55 1010.59 1010.63 1010.71 1010.83 1010.98 1011.16 1011.35 1011.54 1011.73 1011.93 1012.15 1012.38 1012.65 1012.94 1013.23 1013.52 1013.78 1013.99 1014.16 1014.27 1014.35 1014.41 1014.48 1014.55 1014.64 1014.75 1014.86 1014.96 1015.03 1015.06 1015.05 1014.99 1014.91 1014.82 1014.73 1014.65 1014.60 1014.58
1009.18 1009.25 1009.40 1009.63 1009.88 1010.13 1010.32 1010.44 1010.48 1010.46 1010.40 1010.36 1010.36 1010.42 1010.53 1010.71 1010.91 1011.12 1011.33 1011.54 1011.75 1011.97 1012.22 1012.51 1012.83 1013.18 1013.52 1013.83 1014.08 1014.26 1014.37 1014.41 1014.42 1014.42 1014.43 1014.46 1014.53 1014.63 1014.73 1014.81 1014.86 1014.87 1014.83 1014.75 1014.65 1014.56 1014.50 1014.47 1014.51
1009.18 1009.31 1009.53 1009.80 1010.07 1010.30 1010.44 1010.47 1010.40 1010.26 1010.11 1009.98 1009.93 1009.97 1010.09 1010.29 1010.54 1010.80 1011.05 1011.29 1011.52 1011.77 1012.04 1012.35 1012.71 1013.09 1013.47 1013.82 1014.09 1014.28 1014.38 1014.39 1014.35 1014.30 1014.26 1014.25 1014.30 1014.38 1014.49 1014.59 1014.66 1014.68 1014.64 1014.56 1014.46 1014.36 1014.31 1014.31 1014.38
1009.14 1009.34 1009.63 1009.95 1010.25 1010.45 1010.52 1010.45 1010.25 1009.99 1009.71 1009.49 1009.37 1009.38 1009.51 1009.74 1010.04 1010.35 1010.67 1010.96 1011.24 1011.52 1011.83 1012.17 1012.55 1012.97 1013.38 1013.74 1014.03 1014.23 1014.31 1014.31 1014.23 1014.14 1014.07 1014.04 1014.08 1014.16 1014.28 1014.40 1014.48 1014.51 1014.48 1014.40 1014.29 1014.18 1014.12 1014.14 1014.25
1009.10 1009.39 1009.76 1010.14 1010.46 1010.63 1010.63 1010.44 1010.11 1009.69 1009.27 1008.92 1008.72 1008.67 1008.80 1009.05 1009.40 1009.78 1010.16 1010.52 1010.86 1011.19 1011.54 1011.92 1012.34 1012.78 1013.21 1013.60 1013.90 1014.10 1014.19 1014.17 1014.08 1013.98 1013.89 1013.86 1013.90 1014.00 1014.13 1014.27 1014.38 1014.42 1014.39 1014.31 1014.19 1014.08 1014.02 1014.04 1014.17
1009.11 1009.50 1009.96 1010.41 1010.75 1010.90 1010.81 1010.51 1010.02 1009.43 1008.85 1008.36 1008.04 1007.92 1008.01 1008.27 1008.64 1009.07 1009.52 1009.95 1010.35 1010.75 1011.15 1011.58 1012.03 1012.51 1012.96 1013.37 1013.70 1013.91 1014.00 1013.99 1013.92 1013.82 1013.75 1013.73 1013.79 1013.91 1014.08 1014.24 1014.38 1014.44 1014.43 1014.35 1014.24 1014.12 1014.06 1014.07 1014.20
1009.19 1009.69 1010.25 1010.77 1011.12 1011.25 1011.09 1010.66 1010.02 1009.26 1008.51 1007.86 1007.40 1007.18 1007.20 1007.43 1007.81 1008.27 1008.77 1009.26 1009.72 1010.18 1010.64 1011.11 1011.61 1012.12 1012.61 1013.05 1013.40 1013.65 1013.77 1013.79 1013.75 1013.68 1013.64 1013.66 1013.75 1013.91 1014.12 1014.33 1014.49 1014.59 1014.61 1014.55 1014.45 1014.34 1014.27 1014.27 1014.39
1009.34 1009.94 1010.59 1011.17 1011.55 1011.65 1011.43 1010.90 1010.12 1009.20 1008.27 1007.47 1006.87 1006.53 1006.45 1006.62 1006.97 1007.43 1007.94 1008.46 1008.98 1009.48 1009.99 1010.52 1011.06 1011.61 1012.15 1012.63 1013.02 1013.31 1013.48 1013.55 1013.56 1013.55 1013.56 1013.63 1013.78 1013.99 1014.24 1014.50 1014.71 1014.86 1014.92 1014.90 1014.82 1014.72 1014.65 1014.65 1014.74
1009.52 1010.20 1010.92 1011.55 1011.95 1012.03 1011.76 1011.15 1010.26 1009.22 1008.16 1007.21 1006.47 1006.00 1005.82 1005.90 1006.19 1006.61 1007.10 1007.63 1008.16 1008.69 1009.24 1009.80 1010.39 1010.98 1011.56 1012.10 1012.55 1012.90 1013.14 1013.28 1013.35 1013.41 1013.49 1013.63 1013.83 1014.11 1014.42 1014.73 1015.00 1015.20 1015.31 1015.34 1015.30 1015.23 1015.17 1015.16 1015.22
1009.67 1010.40 1011.16 1011.81 1012.22 1012.30 1011.99 1011.34 1010.39 1009.27 1008.12 1007.08 1006.23 1005.65 1005.36 1005.34 1005.53 1005.88 1006.32 1006.81 1007.33 1007.86 1008.42 1009.01 1009.63 1010.27 1010.90 1011.48 1012.00 1012.42 1012.74 1012.96 1013.12 1013.26 1013.42 1013.62 1013.90 1014.23 1014.60 1014.97 1015.30 1015.56 1015.73 1015.81 1015.82 1015.79 1015.76 1015.75 1015.79
1009.74 1010.49 1011.25 1011.88 1012.28 1012.35 1012.04 1011.38 1010.43 1009.30 1008.13 1007.04 1006.14 1005.48 1005.10 1004.97 1005.07 1005.32 1005.67 1006.09 1006.56 1007.06 1007.61 1008.20 1008.84 1009.51 1010.18 1010.82 1011.40 1011.89 1012.29 1012.61 1012.86 1013.08 1013.32 1013.60 1013.94 1014.33 1014.75 1015.18 1015.56 1015.88 1016.12 1016.26 1016.33 1016.35 1016.35 1016.36 1016.40
1009.72 1010.42 1011.12 1011.71 1012.07 1012.12 1011.82 1011.20 1010.30 1009.23 1008.11 1007.05 1006.15 1005.47 1005.03 1004.82 1004.81 1004.96 1005.20 1005.53 1005.92 1006.36 1006.87 1007.44 1008.07 1008.76 1009.46 1010.15 1010.79 1011.36 1011.84 1012.24 1012.58 1012.89 1013.21 1013.56 1013.95 1014.39 1014.87 1015.34 1015.77 1016.14 1016.43 1016.64 1016.77 1016.84 1016.89 1016.93 1016.98
1009.60 1010.19 1010.77 1011.26 1011.55 1011.58 1011.31 1010.75 1009.95 1009.00 1008.01 1007.06 1006.23 1005.58 1005.13 1004.87 1004.77 1004.81 1004.95 1005.16 1005.45 1005.81 1006.25 1006.78 1007.39 1008.07 1008.79 1009.52 1010.21 1010.84 1011.40 1011.88 1012.31 1012.70 1013.09 1013.50 1013.95 1014.43 1014.94 1015.44 1015.91 1016.33 1016.67 1016.93 1017.12 1017.25 1017.35 1017.44 1017.52
1009.41 1009.83 1010.24 1010.59 1010.78 1010.76 1010.51 1010.04 1009.39 1008.61 1007.79 1007.00 1006.31 1005.75 1005.33 1005.05 1004.90 1004.85 1004.87 1004.98 1005.15 1005.42 1005.78 1006.25 1006.82 1007.49 1008.21 1008.95 1009.69 1010.38 1011.00 1011.56 1012.07 1012.53 1012.99 1013.46 1013.95 1014.47 1015.00 1015.52 1016.02 1016.46 1016.83 1017.14 1017.39 1017.58 1017.74 1017.88 1018.01
Thickness
5821 5824 5825 5818 5809 5803 5794 5800 5806 5805 5805 5809 5810 5806 5798 5793 5786 5777 5798 5808 5808 5807 5804 5799 5797 5796 5796 5795 5796 5797 5796 5793 5791 5790 5789 5788 5787 5786 5785 5784 5782 5780 5780 5779 5777 5775 5774 5773 5771
5830 5827 5822 5818 5808 5792 5790 5803 5803 5804 5808 5812 5811 5807 5801 5796 5799 5797 5801 5805 5807 5807 5805 5800 5796 5796 5795 5794 5794 5795 5794 5792 5790 5789 5788 5787 5786 5785 5784 5783 5782 5780 5779 5778 5776 5775 5773 5772 5770
5831 5828 5821 5818 5806 5796 5792 5805 5807 5811 5815 5812 5807 5807 5800 5794 5799 5800 5804 5807 5808 5806 5804 5799 5796 5795 5794 5793 5792 5792 5791 5789 5788 5787 5786 5785 5785 5784 5783 5782 5781 5780 5778 5777 5776 5774 5772 5771 5769
5830 5826 5825 5815 5802 5807 5807 5811 5814 5811 5813 5814 5810 5801 5800 5802 5804 5805 5808 5809 5807 5806 5804 5798 5795 5794 5792 5791 5790 5789 5788 5788 5787 5786 5785 5784 5784 5783 5783 5782 5781 5779 5778 5776 5775 5773 5771 5770 5768
5833 5826 5816 5809 5806 5812 5817 5819 5819 5812 5809 5811 5809 5797 5793 5803 5809 5809 5808 5808 5806 5805 5804 5798 5793 5792 5791 5790 5789 5788 5787 5786 5785 5784 5783 5783 5783 5783 5783 5782 5781 5779 5778 5776 5774 5772 5771 5769 5768
5829 5827 5811 5802 5805 5814 5820 5823 5821 5814 5811 5811 5808 5799 5794 5804 5806 5807 5809 5808 5807 5805 5803 5798 5793 5791 5790 5789 5788 5787 5786 5785 5784 5782 5782 5782 5782 5783 5782 5782 5781 5780 5778 5776 5774 5772 5770 5768 5767
5825 5821 5809 5809 5807 5810 5817 5826 5820 5815 5810 5811 5813 5800 5797 5803 5806 5809 5809 5808 5807 5805 5803 5800 5796 5792 5790 5788 5787 5787 5786 5784 5782 5781 5781 5781 5781 5781 5781 5781 5781 5779 5778 5776 5774 5772 5769 5768 5767
5837 5827 5816 5815 5810 5809 5822 5825 5824 5819 5812 5820 5818 5802 5796 5803 5808 5809 5809 5807 5805 5804 5803 5801 5799 5795 5793 5791 5787 5786 5785 5783 5782 5780 5780 5780 5780 5780 5780 5780 5779 5778 5777 5775 5773 5771 5768 5766 5766
5841 5823 5815 5816 5813 5814 5825 5821 5823 5828 5819 5817 5817 5813 5811 5811 5810 5807 5805 5803 5802 5800 5801 5801 5799 5797 5795 5794 5789 5787 5785 5783 5782 5781 5780 5780 5782 5782 5780 5778 5777 5775 5775 5773 5772 5770 5768 5766 5766
5835 5819 5818 5828 5828 5825 5826 5823 5823 5820 5813 5810 5810 5812 5814 5811 5808 5804 5802 5800 5799 5798 5800 5799 5799 5797 5796 5794 5791 5789 5788 5786 5784 5783 5782 5782 5781 5780 5780 5776 5775 5773 5772 5772 5770 5769 5768 5767 5768
5835 5824 5829 5833 5836 5834 5827 5826 5830 5820 5810 5812 5810 5809 5811 5809 5807 5805 5804 5803 5802 5801 5800 5800 5799 5797 5796 5794 5792 5790 5788 5786 5785 5783 5782 5781 5781 5781 5780 5778 5775 5773 5772 5772 5770 5770 5771 5770 5768
5833 5834 5836 5836 5839 5835 5830 5830 5827 5824 5819 5826 5823 5819 5814 5810 5808 5807 5805 5804 5803 5802 5800 5800 5799 5796 5794 5793 5792 5790 5789 5788 5787 5784 5782 5782 5781 5780 5778 5776 5776 5775 5773 5772 5771 5770 5769 5767 5767
5834 5834 5839 5842 5842 5839 5835 5830 5827 5824 5829 5829 5825 5819 5815 5813 5811 5811 5809 5806 5804 5801 5801 5800 5798 5794 5792 5791 5790 5790 5789 5789 5788 5785 5783 5781 5782 5780 5778 5776 5774 5774 5773 5772 5770 5769 5768 5767 5768
5838 5839 5839 5842 5841 5839 5832 5830 5828 5824 5831 5826 5821 5818 5817 5815 5814 5811 5808 5805 5803 5801 5800 5800 5798 5795 5793 5791 5790 5790 5790 5787 5788 5786 5784 5782 5781 5780 5778 5776 5774 5774 5773 5772 5770 5769 5769 5769 5768
5843 5835 5836 5840 5840 5839 5835 5822 5825 5830 5831 5824 5821 5819 5818 5817 5815 5812 5810 5808 5806 5803 5802 5800 5799 5797 5794 5793 5792 5792 5790 5789 5787 5785 5782 5781 5780 5778 5777 5776 5775 5773 5772 5770 5770 5769 5769 5769 5769
5840 5832 5824 5834 5839 5839 5830 5813 5827 5835 5830 5823 5823 5821 5818 5817 5817 5816 5814 5811 5809 5806 5802 5801 5802 5799 5795 5793 5792 5793 5791 5789 5787 5785 5783 5781 5779 5777 5776 5775 5775 5772 5772 5771 5769 5769 5768 5768 5769
5829 5823 5822 5829 5839 5838 5831 5820 5829 5836 5831 5824 5823 5823 5820 5817 5818 5818 5817 5814 5811 5807 5804 5801 5800 5798 5796 5794 5792 5791 5790 5789 5787 5785 5783 5781 5779 5778 5777 5775 5773 5772 5771 5770 5770 5769 5768 5767 5766
5820 5824 5823 5824 5835 5835 5828 5826 5832 5836 5832 5828 5826 5824 5821 5819 5819 5820 5818 5817 5813 5809 5805 5802 5800 5798 5796 5795 5792 5790 5789 5789 5787 5785 5782 5780 5778 5777 5776 5775 5773 5772 5771 5769 5767 5765 5765 5765 5765
5831 5826 5822 5828 5839 5832 5826 5825 5831 5835 5833 5830 5827 5826 5824 5822 5824 5823 5820 5818 5814 5810 5805 5803 5800 5798 5796 5794 5791 5789 5787 5787 5786 5784 5781 5779 5777 5776 5775 5775 5772 5771 5770 5767 5767 5766 5764 5764 5764
5828 5822 5822 5829 5835 5829 5825 5825 5833 5836 5833 5833 5830 5828 5827 5825 5824 5821 5820 5818 5815 5810 5806 5803 5800 5799 5797 5795 5792 5790 5788 5788 5786 5784 5780 5778 5777 5775 5776 5773 5773 5771 5768 5766 5765 5763 5762 5763 5763
5825 5823 5823 5821 5827 5830 5824 5820 5827 5834 5837 5836 5836 5835 5833 5829 5825 5822 5819 5818 5815 5811 5808 5806 5802 5800 5797 5796 5794 5791 5787 5786 5784 5781 5780 5778 5776 5775 5774 5772 5772 5769 5769 5767 5764 5763 5760 5758 5760
5818 5831 5827 5822 5816 5817 5819 5807 5823 5831 5830 5831 5834 5834 5834 5832 5829 5825 5821 5818 5816 5814 5811 5807 5802 5799 5797 5795 5793 5789 5785 5782 5781 5781 5780 5778 5776 5775 5774 5772 5770 5768 5768 5765 5765 5764 5761 5757 5756
5825 5834 5828 5823 5819 5815 5819 5810 5823 5831 5824 5829 5834 5835 5836 5835 5831 5827 5824 5820 5818 5816 5812 5808 5802 5798 5796 5794 5792 5788 5786 5784 5783 5781 5778 5777 5777 5775 5773 5771 5769 5767 5767 5765 5763 5761 5759 5758 5755
5831 5825 5822 5822 5820 5799 5813 5808 5811 5829 5827 5831 5836 5836 5835 5835 5832 5828 5825 5822 5818 5816 5812 5808 5802 5798 5796 5793 5791 5787 5784 5782 5780 5778 5777 5776 5776 5774 5772 5770 5768 5766 5765 5763 5761 5759 5757 5755 5753
5824 5812 5798 5793 5795 5801 5818 5809 5815 5833 5836 5836 5836 5836 5836 5834 5831 5827 5823 5819 5816 5813 5811 5808 5802 5797 5795 5792 5790 5787 5784 5781 5778 5777 5775 5774 5774 5772 5770 5769 5766 5765 5763 5761 5760 5757 5756 5754 5751
5821 5819 5796 5783 5790 5807 5809 5806 5821 5836 5839 5840 5840 5839 5836 5833 5832 5828 5824 5820 5817 5814 5810 5806 5801 5796 5794 5791 5788 5786 5783 5782 5780 5776 5775 5773 5772 5771 5769 5766 5764 5763 5761 5760 5758 5757 5755 5753 5750
5815 5817 5829 5813 5807 5800 5808 5814 5823 5832 5832 5834 5835 5834 5832 5831 5831 5828 5825 5822 5818 5814 5810 5806 5801 5796 5793 5790 5786 5783 5781 5778 5777 5775 5773 5773 5770 5769 5766 5764 5763 5761 5759 5757 5755 5754 5751 5750 5749
5825 5824 5816 5807 5785 5783 5796 5803 5810 5816 5821 5826 5828 5828 5829 5829 5829 5827 5825 5822 5819 5815 5810 5806 5801 5795 5792 5788 5785 5783 5779 5776 5775 5773 5770 5768 5767 5765 5763 5762 5760 5758 5756 5754 5752 5751 5749 5746 5745
5810 5810 5809 5810 5807 5789 5785 5801 5827 5821 5823 5823 5824 5826 5826 5826 5826 5825 5823 5821 5818 5814 5809 5803 5799 5794 5790 5786 5782 5779 5776 5774 5772 5770 5768 5766 5764 5761 5759 5758 5756 5754 5753 5751 5749 5748 5745 5743 5742
5817 5814 5810 5796 5792 5798 5795 5802 5832 5828 5828 5825 5822 5822 5823 5823 5823 5822 5819 5816 5813 5810 5806 5801 5797 5793 5788 5785 5780 5776 5774 5771 5768 5767 5764 5762 5760 5758 5757 5755 5753 5751 5749 5747 5745 5743 5742 5740 5738